Погода в Палицах

Россия / Псковская область     58°01′43″N   28°40′03″E
темп.,
°C
ветер,
м/с
пор.,
м/с
влажн.,
%
обл.,
%
осадки,
мм/ч
давл.,
гПа
погр.,
м
17 мая, вт
вт1700:00+4зсз3117767 0.0 1013318
03:00+5зсз388156 0.0 1013335
06:00+4зсз399498 0.1 1013318
09:00+5ссз4892100 0.3 1013820
12:00+6сз4991100 1.5 1014969
15:00+10ссз6850100 1.8 10141609
18:00+10ссз685498 0.0 10161458
21:00+6с5970100 0.0 10181163
18 мая, ср
ср1800:00+5ссз4977100 0.0 1019698
03:00+5ссз4980100 0.0 1020654
06:00+5ссз497160 0.0 1021645
09:00+8ссз465575 0.0 10221181
12:00+12сз4647100 0.0 10221535
15:00+14зсз583911 0.0 10211559
18:00+15зсз49394 0.0 10191821
21:00+11з6125397 0.0 1019878
19 мая, чт
чт1900:00+8з51463100 0.0 1019637
03:00+7з51469100 0.0 1019499
06:00+7зсз31176100 0.0 1019427
09:00+10сз356684 0.0 1019510
12:00+15сз3550100 0.0 10201244
15:00+17зсз4544100 0.0 10191765
18:00+16зсз4451100 0.0 10191494
21:00+11зсз2382100 0.0 102061
20 мая, пт
пт2000:00+10с1178100 0.0 101914
03:00+9вюв2377100 0.0 101899
06:00+8вюв2683100 0.1 1017178
09:00+8вюв3798100 1.6 1016281
12:00+9вюв4897100 2.8 1014426
15:00+9в4998100 8.9 1011391
18:00+9в41099100 7.3 1009465
21:00+9всв61298100 11.9 1008595
21 мая, сб
сб2100:00+9всв51397100 1.6 1008709
03:00+8всв4129563 1.7 1009535
06:00+5всв41392100 0.0 1010420
09:00+10всв5107572 0.0 1009731
12:00+13в5858100 0.0 10081522
15:00+13вюв4752100 0.1 10081434
18:00+14всв4751100 0.0 10071351
21:00+10в2576100 0.1 1007131